STARLINK-34127, 63810

Orbit data source: Space-Track

STARLINK-34127, 63810 is a payload satellite owned by SpaceX/Seattle (US) in LEO that was launched on Sun, 04 May 2025 UTC via an FALCON 9 launch vehicle from the Air Force Eastern Test Range (AFETR). Payload-class satellites include a variety of spacecraft equipped with specific instruments for various scientific and technological missions. These include communications satellites like Starlink; space stations such as the ISS; scientific satellites like the Hubble; Earth observation satellites from companies like Planet Labs, Umbra, and HawkEye 360; GPS; miniature CubeSats for education and research; and military/defense satellites.

Loading next visibility...
Identifier
63810, 2025-092G
Orbit
LEO
Last TLE update
10 hours ago
Origin
Manufacturer
SpaceX/Seattle
Mission
Operational Commercial Communications
Bus & Motor
STARLINK V2MO, Unknown motor
Mass
575 kg wet, ~530 kg dry
Launch date (UTC)
2025-05-04 (2 months ago)
Launch vehicle
FALCON 9
Launch site
Air Force Eastern Test Range (AFETR)
Object type
Payload
Rocket body
Debris
Shape & HBR
Box + 1 Pan, 29 m
Radar Cross Section
41.120 m², Large (>1 m²)

Expand to show TLE details & history

TLE from 10 hours ago
0 STARLINK-34127
1 63810U 25092G   25189.19405702  .00021942  00000-0  80478-3 0  9997
2 63810  43.0012 113.2015 0001430 277.9270  82.1419 15.27568243 11229
Epoch: 2025-07-08T04:39Z
TLE epoch observation values (Epoch: 2025-07-08T04:39:26.526Z)
Latitude
-0.00004°
Longitude
116.94838°
Altitude
482.726 km
Speed
7.626 km/s
True Right ascension
07h 32m 48s
True Declination
0° 00' 00"
Sunlit
Object was in daylight at epoch
Visualization orbit readout
Latitude
-11.12409°
Longitude
-53.36557°
Altitude
484.814 km
Speed
7.624 km/s
Apparent Right ascension
18h 05m 46s
Apparent Declination
-30° 27' 37"
Sunlit
Object is in full shadow
Visualization observer readout
Local Sidereal Time
03:02:28
Azimuth
269.687° W
Elevation
-51.814°
Doppler factor
1
Orbital elements
Apogee altitude
486.011 km
Perigee altitude
484.048 km
Semi-major axis
6,863.166 km
Eccentricity
0.00014
Inclination
43.0012°
RAAN
113.2015°
Arg. of periapsis
277.927°
True anomaly
Unknown
Mean anomaly
82.1419°
Eccentric anomaly
Unknown
Mean motion
3.8173 °/min
Orbital period
94.31 mins
BSTAR
0.00080478
Loading maneuver chart data...
Loading SW <> Apogee altitude chart data...
Loading historical data...
Loading historical data...
Loading historical data...
Loading historical data...
Loading historical data...
Loading historical data...
Loading historical data...

STARLINK-34127 Visibility forecast

Observer location: undefined°, undefined°

Span
Click to sort rows by Start time (UTC) header in descending order
Start Az.
Max El. time (UTC)
Max El. Az.
Max El.
End time (UTC)
End Az.
5 mins2025-07-08 22:07:41.724Z208.336° SW2025-07-08 22:09:41.724Z166.757° S28.69°2025-07-08 22:12:41.724Z90.443° ESE
5 mins2025-07-08 23:46:41.724Z265.728° W2025-07-08 23:48:41.724Z311.948° NW42.486°2025-07-08 23:51:41.724Z68.456° E
6 mins2025-07-09 01:25:41.724Z292.088° WNW2025-07-09 01:27:41.724Z334.356° NNW36.917°2025-07-09 01:31:41.724Z81.894° E
6 mins2025-07-09 03:04:41.724Z284.225° WNW2025-07-09 03:07:41.724Z146.717° SSE41.735°2025-07-09 03:10:41.724Z117.412° SE
|